TimeEST,TemperatureF,Dew PointF,Humidity,Sea Level PressureIn,VisibilityMPH,Wind Direction,Wind SpeedMPH,Gust SpeedMPH,PrecipitationIn,Events,Conditions,WindDirDegrees,DateUTC
12:15 AM,50.0,46.4,87,29.99,5.0,SSW,3.5,-,N/A,,Overcast,200,2012-12-07 05:15:00
12:35 AM,50.0,46.4,87,29.99,4.0,SSW,4.6,-,N/A,,Overcast,210,2012-12-07 05:35:00
12:55 AM,50.0,46.4,87,29.99,4.0,South,3.5,-,N/A,,Overcast,190,2012-12-07 05:55:00
1:15 AM,50.0,46.4,87,29.98,4.0,Calm,Calm,-,N/A,,Overcast,0,2012-12-07 06:15:00
1:35 AM,50.0,46.4,87,29.98,4.0,Calm,Calm,-,N/A,,Overcast,0,2012-12-07 06:35:00
1:55 AM,50.0,46.4,87,29.98,3.0,Calm,Calm,-,N/A,,Overcast,0,2012-12-07 06:55:00
2:15 AM,50.0,46.4,87,29.98,3.0,Calm,Calm,-,N/A,,Overcast,0,2012-12-07 07:15:00
2:35 AM,50.0,46.4,87,29.98,2.5,Calm,Calm,-,N/A,,Overcast,0,2012-12-07 07:35:00
2:55 AM,50.0,46.4,87,29.98,2.5,Calm,Calm,-,N/A,,Overcast,0,2012-12-07 07:55:00
3:15 AM,50.0,46.4,87,29.97,3.0,SE,3.5,-,N/A,,Overcast,140,2012-12-07 08:15:00
3:35 AM,48.2,46.4,93,29.97,2.0,SE,3.5,-,N/A,,Overcast,130,2012-12-07 08:35:00
3:55 AM,50.0,46.4,87,29.97,1.0,SE,5.8,-,N/A,,Overcast,140,2012-12-07 08:55:00
4:15 AM,50.0,46.4,87,29.96,1.2,SE,4.6,-,N/A,,Overcast,140,2012-12-07 09:15:00
4:35 AM,50.0,48.2,94,29.95,4.0,SSE,4.6,-,N/A,,Overcast,160,2012-12-07 09:35:00
4:55 AM,50.0,48.2,94,29.95,2.5,SSE,4.6,-,N/A,,Overcast,150,2012-12-07 09:55:00
5:15 AM,51.8,48.2,88,29.95,3.0,SE,6.9,-,N/A,,Overcast,140,2012-12-07 10:15:00
5:35 AM,51.8,48.2,88,29.95,2.5,SSE,6.9,-,N/A,,Overcast,150,2012-12-07 10:35:00
5:55 AM,51.8,48.2,88,29.95,3.0,SE,5.8,-,N/A,,Overcast,140,2012-12-07 10:55:00
6:15 AM,51.8,48.2,88,29.94,3.0,East,4.6,-,N/A,,Overcast,90,2012-12-07 11:15:00
6:35 AM,51.8,48.2,88,29.95,3.0,Calm,Calm,-,0.05,,Overcast,0,2012-12-07 11:35:00
6:55 AM,51.8,48.2,88,29.94,2.5,ENE,5.8,-,0.05,,Overcast,60,2012-12-07 11:55:00
7:15 AM,51.8,48.2,88,29.95,1.8,ENE,3.5,-,0.02,,Overcast,60,2012-12-07 12:15:00
7:35 AM,51.8,48.2,88,29.95,1.8,East,4.6,-,0.06,,Overcast,90,2012-12-07 12:35:00
7:55 AM,51.8,48.2,88,29.95,2.0,ESE,3.5,-,0.08,,Overcast,120,2012-12-07 12:55:00
8:15 AM,51.8,50.0,94,29.95,1.5,ENE,3.5,-,N/A,,Overcast,60,2012-12-07 13:15:00
8:35 AM,51.8,48.2,88,29.94,0.5,ENE,5.8,-,N/A,,Overcast,60,2012-12-07 13:35:00
8:55 AM,51.8,50.0,94,29.94,1.8,ESE,4.6,-,0.02,,Overcast,120,2012-12-07 13:55:00
9:15 AM,53.6,51.8,94,29.94,1.8,SSE,5.8,-,N/A,,Overcast,150,2012-12-07 14:15:00
9:35 AM,53.6,51.8,94,29.94,1.8,South,3.5,-,N/A,,Overcast,190,2012-12-07 14:35:00
9:55 AM,53.6,51.8,94,29.94,2.5,South,5.8,-,N/A,,Overcast,180,2012-12-07 14:55:00
10:15 AM,53.6,51.8,94,29.94,4.0,South,8.1,-,N/A,,Overcast,180,2012-12-07 15:15:00
10:35 AM,53.6,51.8,94,29.93,6.0,South,5.8,-,N/A,,Overcast,170,2012-12-07 15:35:00
10:55 AM,53.6,51.8,94,29.93,3.0,South,5.8,-,0.02,,Overcast,180,2012-12-07 15:55:00
11:15 AM,53.6,51.8,94,29.93,6.0,South,6.9,-,N/A,,Overcast,180,2012-12-07 16:15:00
11:35 AM,53.6,51.8,94,29.92,7.0,South,10.4,-,N/A,,Overcast,190,2012-12-07 16:35:00
11:55 AM,53.6,51.8,94,29.92,9.0,SSW,9.2,-,N/A,,Overcast,200,2012-12-07 16:55:00
12:15 PM,55.4,51.8,88,29.90,7.0,SSW,8.1,-,N/A,,Overcast,200,2012-12-07 17:15:00
12:35 PM,55.4,51.8,88,29.89,8.0,SSW,9.2,-,N/A,,Overcast,200,2012-12-07 17:35:00
12:55 PM,55.4,51.8,88,29.88,5.0,SSW,9.2,-,N/A,,Overcast,200,2012-12-07 17:55:00
1:15 PM,55.4,51.8,88,29.88,5.0,SSW,10.4,-,N/A,,Overcast,200,2012-12-07 18:15:00
1:35 PM,55.4,51.8,88,29.87,6.0,SSW,9.2,-,N/A,,Overcast,200,2012-12-07 18:35:00
1:55 PM,55.4,53.6,94,29.87,5.0,SSW,10.4,-,N/A,,Overcast,200,2012-12-07 18:55:00
2:15 PM,55.4,53.6,94,29.86,4.0,SSW,9.2,-,N/A,,Overcast,200,2012-12-07 19:15:00
2:35 PM,55.4,53.6,94,29.85,4.0,South,10.4,-,N/A,,Overcast,190,2012-12-07 19:35:00
2:55 PM,55.4,53.6,94,29.85,3.0,SSW,9.2,-,N/A,,Overcast,200,2012-12-07 19:55:00
3:15 PM,55.4,53.6,94,29.85,2.5,SSW,9.2,-,N/A,,Overcast,200,2012-12-07 20:15:00
3:35 PM,55.4,53.6,94,29.85,2.5,South,9.2,-,N/A,,Overcast,190,2012-12-07 20:35:00
3:55 PM,55.4,53.6,94,29.85,3.0,South,10.4,-,N/A,,Overcast,190,2012-12-07 20:55:00
4:15 PM,55.4,53.6,94,29.85,4.0,South,9.2,-,N/A,,Overcast,190,2012-12-07 21:15:00
4:35 PM,57.2,53.6,88,29.85,4.0,South,11.5,-,N/A,,Overcast,190,2012-12-07 21:35:00
4:55 PM,55.4,53.6,94,29.85,5.0,South,10.4,-,N/A,,Mostly Cloudy,190,2012-12-07 21:55:00
5:15 PM,55.4,53.6,94,29.85,5.0,SSW,8.1,-,N/A,,Mostly Cloudy,200,2012-12-07 22:15:00
5:35 PM,57.2,53.6,88,29.85,5.0,SSW,9.2,-,N/A,,Overcast,210,2012-12-07 22:35:00
5:55 PM,55.4,53.6,94,29.85,6.0,SSW,8.1,-,N/A,,Overcast,200,2012-12-07 22:55:00
6:15 PM,55.4,53.6,94,29.85,7.0,SSW,8.1,-,N/A,,Overcast,200,2012-12-07 23:15:00
6:35 PM,55.4,53.6,94,29.86,6.0,SSW,10.4,-,N/A,,Mostly Cloudy,200,2012-12-07 23:35:00
6:55 PM,55.4,53.6,94,29.86,5.0,SSW,8.1,-,N/A,,Mostly Cloudy,210,2012-12-07 23:55:00
7:15 PM,55.4,53.6,94,29.87,5.0,SSW,8.1,-,N/A,,Overcast,210,2012-12-08 00:15:00
7:35 PM,55.4,53.6,94,29.87,5.0,SSW,8.1,-,N/A,,Overcast,210,2012-12-08 00:35:00
8:15 PM,55.4,53.6,94,29.88,4.0,SSW,9.2,-,N/A,,Overcast,210,2012-12-08 01:15:00
8:35 PM,55.4,53.6,94,29.88,4.0,SSW,8.1,-,N/A,,Mostly Cloudy,210,2012-12-08 01:35:00
8:55 PM,55.4,53.6,94,29.88,4.0,SSW,9.2,-,N/A,,Mostly Cloudy,210,2012-12-08 01:55:00
9:15 PM,55.4,53.6,94,29.89,3.0,SW,9.2,-,N/A,,Mostly Cloudy,220,2012-12-08 02:15:00
9:35 PM,55.4,53.6,94,29.89,3.0,SSW,9.2,-,N/A,,Scattered Clouds,210,2012-12-08 02:35:00
9:55 PM,53.6,51.8,94,29.89,2.5,SSW,6.9,-,N/A,,Clear,210,2012-12-08 02:55:00
10:15 PM,55.4,53.6,94,29.88,2.5,SSW,5.8,-,N/A,,Scattered Clouds,210,2012-12-08 03:15:00
10:55 PM,55.4,53.6,94,29.88,1.8,SSW,8.1,-,N/A,,Overcast,210,2012-12-08 03:55:00
11:35 PM,55.4,53.6,94,29.88,0.5,SW,9.2,-,N/A,,Overcast,220,2012-12-08 04:35:00
11:55 PM,55.4,53.6,94,29.88,1.2,SW,8.1,-,N/A,,Overcast,220,2012-12-08 04:55:00